When you browse on this site, cookies collect data to enhance your experience and personalize the content and advertising you see.
Visit our Privacy Policy to learn more. By continuing to use the site, you agree to this use of cookies and data.
  • en Suisse
  • Liste des pays
  • À 7 jours
  • Température de l'eau
  • Carte météo
  • Widgets météo
  • user-avatar
    Se connecter

    Météo par heure à Warwick

    Ce jour, 13 Décembre, Vendredi

    Heure Température Précipitation Vent Pression Humidité
    00:00 +5°C° 1 mm 4 m/s 723 mmHg 93%
    01:00 +5°C° 0.6 mm 5 m/s 723 mmHg 91%
    02:00 +4°C° 0.6 mm 7 m/s 723 mmHg 90%
    03:00 +3°C° 0.6 mm 9 m/s 723 mmHg 88%
    04:00 +2°C° 0.8 mm 9 m/s 724 mmHg 88%
    05:00 +2°C° 0.8 mm 9 m/s 725 mmHg 87%
    06:00 +2°C° 0.8 mm 9 m/s 726 mmHg 87%
    07:00 +2°C° 0 mm 8 m/s 727 mmHg 86%
    08:00 +2°C° 0 mm 8 m/s 728 mmHg 85%
    09:00 +2°C° 0 mm 8 m/s 729 mmHg 84%
    10:00 +4°C° 0 mm 8 m/s 729 mmHg 82%
    11:00 +4°C° 0 mm 8 m/s 730 mmHg 79%
    12:00 +5°C° 0 mm 9 m/s 730 mmHg 76%
    13:00 +3°C° 0 mm 9 m/s 731 mmHg 78%
    14:00 +3°C° 0 mm 9 m/s 731 mmHg 80%
    15:00 +3°C° 0 mm 9 m/s 731 mmHg 82%
    16:00 +3°C° 0 mm 9 m/s 732 mmHg 81%
    17:00 +4°C° 0 mm 8 m/s 732 mmHg 80%
    18:00 +3°C° 0 mm 7 m/s 732 mmHg 79%
    19:00 +3°C° 0 mm 7 m/s 732 mmHg 79%
    20:00 +2°C° 0 mm 6 m/s 732 mmHg 79%
    21:00 +2°C° 0 mm 5 m/s 731 mmHg 79%
    22:00 +3°C° 0.4 mm 4 m/s 731 mmHg 84%
    23:00 +3°C° 0.4 mm 3 m/s 730 mmHg 88%

    Demain, 14 Décembre, Samedi

    Heure Température Précipitation Vent Pression Humidité
    00:00 +5°C° 0.4 mm 1 m/s 730 mmHg 93%
    01:00 +3°C° 0.1 mm 3 m/s 730 mmHg 92%
    02:00 +2°C° 0.1 mm 5 m/s 731 mmHg 90%
    03:00 +3°C° 0.1 mm 6 m/s 731 mmHg 89%
    04:00 +2°C° 0.1 mm 7 m/s 732 mmHg 84%
    05:00 +2°C° 0.1 mm 7 m/s 733 mmHg 79%
    06:00 +1°C° 0.1 mm 8 m/s 734 mmHg 73%
    07:00 +1°C° 0 mm 8 m/s 734 mmHg 74%
    08:00 0°C° 0 mm 8 m/s 735 mmHg 74%
    09:00 0°C° 0 mm 7 m/s 736 mmHg 74%
    10:00 +1°C° 0 mm 8 m/s 736 mmHg 71%
    11:00 +1°C° 0 mm 9 m/s 736 mmHg 67%
    12:00 +2°C° 0 mm 9 m/s 737 mmHg 64%
    13:00 +2°C° 0 mm 8 m/s 737 mmHg 64%
    14:00 +2°C° 0 mm 7 m/s 737 mmHg 64%
    15:00 +2°C° 0 mm 6 m/s 738 mmHg 64%
    16:00 +2°C° 0 mm 6 m/s 737 mmHg 69%
    17:00 +1°C° 0 mm 6 m/s 736 mmHg 73%
    18:00 +1°C° 0 mm 5 m/s 736 mmHg 78%
    19:00 +2°C° 0.6 mm 6 m/s 735 mmHg 81%
    20:00 +3°C° 0.6 mm 6 m/s 734 mmHg 83%
    21:00 +3°C° 0.6 mm 6 m/s 734 mmHg 86%
    22:00 +3°C° 0.8 mm 7 m/s 734 mmHg 85%
    23:00 +2°C° 0.8 mm 7 m/s 733 mmHg 84%

    Après-demain, 15 Décembre, Dimanche

    Heure Température Précipitation Vent Pression Humidité
    00:00 +2°C° 0.8 mm 7 m/s 733 mmHg 83%
    01:00 0°C° 0.1 mm 7 m/s 735 mmHg 81%
    02:00 +1°C° 0.1 mm 6 m/s 736 mmHg 80%
    03:00 +1°C° 0.1 mm 6 m/s 737 mmHg 78%
    04:00 +1°C° 0 mm 5 m/s 738 mmHg 79%
    05:00 0°C° 0 mm 5 m/s 738 mmHg 79%
    06:00 0°C° 0 mm 4 m/s 739 mmHg 79%
    07:00 +1°C° 0 mm 5 m/s 739 mmHg 79%
    08:00 +1°C° 0 mm 6 m/s 740 mmHg 79%
    09:00 +2°C° 0 mm 7 m/s 740 mmHg 80%
    10:00 +3°C° 0 mm 7 m/s 740 mmHg 77%
    11:00 +3°C° 0 mm 7 m/s 741 mmHg 75%
    12:00 +4°C° 0 mm 8 m/s 741 mmHg 73%
    13:00 +4°C° 0 mm 7 m/s 741 mmHg 74%
    14:00 +4°C° 0 mm 6 m/s 741 mmHg 75%
    15:00 +3°C° 0 mm 5 m/s 741 mmHg 76%
    16:00 +3°C° 0.6 mm 6 m/s 740 mmHg 81%
    17:00 +3°C° 0.6 mm 6 m/s 740 mmHg 86%
    18:00 +2°C° 0.6 mm 7 m/s 740 mmHg 91%
    19:00 +2°C° 0.3 mm 6 m/s 740 mmHg 89%
    20:00 +2°C° 0.3 mm 6 m/s 741 mmHg 87%
    21:00 +2°C° 0.3 mm 5 m/s 741 mmHg 84%
    22:00 +2°C° 0 mm 5 m/s 741 mmHg 83%
    23:00 +2°C° 0 mm 5 m/s 742 mmHg 83%

    16 Décembre, Lundi

    Heure Température Précipitation Vent Pression Humidité
    00:00 +2°C° 0 mm 5 m/s 742 mmHg 82%
    01:00 +2°C° 0 mm 6 m/s 742 mmHg 81%
    02:00 +2°C° 0 mm 6 m/s 741 mmHg 81%
    03:00 +2°C° 0 mm 6 m/s 741 mmHg 81%
    04:00 +2°C° 0 mm 6 m/s 742 mmHg 80%
    05:00 +2°C° 0 mm 6 m/s 742 mmHg 79%
    06:00 +2°C° 0 mm 6 m/s 742 mmHg 79%
    07:00 +2°C° 0 mm 6 m/s 743 mmHg 80%
    08:00 +2°C° 0 mm 6 m/s 743 mmHg 81%
    09:00 +2°C° 0 mm 5 m/s 744 mmHg 81%
    10:00 +3°C° 0 mm 5 m/s 744 mmHg 81%
    11:00 +3°C° 0 mm 5 m/s 745 mmHg 80%
    12:00 +5°C° 0 mm 5 m/s 745 mmHg 79%
    13:00 +5°C° 0 mm 4 m/s 745 mmHg 81%
    14:00 +4°C° 0 mm 3 m/s 745 mmHg 83%
    15:00 +5°C° 0 mm 2 m/s 745 mmHg 86%
    16:00 +4°C° 0 mm 2 m/s 746 mmHg 87%
    17:00 +4°C° 0 mm 2 m/s 746 mmHg 88%
    18:00 +3°C° 0 mm 2 m/s 746 mmHg 89%
    19:00 +3°C° 0 mm 2 m/s 746 mmHg 88%
    20:00 +3°C° 0 mm 2 m/s 746 mmHg 88%
    21:00 +3°C° 0 mm 2 m/s 747 mmHg 87%
    22:00 +3°C° 0 mm 2 m/s 747 mmHg 87%
    23:00 +3°C° 0 mm 2 m/s 747 mmHg 88%

    17 Décembre, Mardi

    Heure Température Précipitation Vent Pression Humidité
    00:00 +3°C° 0 mm 2 m/s 747 mmHg 88%
    01:00 +3°C° 0 mm 2 m/s 747 mmHg 89%
    02:00 +3°C° 0 mm 2 m/s 747 mmHg 89%
    03:00 +3°C° 0 mm 2 m/s 748 mmHg 90%
    04:00 +3°C° 0 mm 2 m/s 748 mmHg 91%
    05:00 +3°C° 0 mm 2 m/s 748 mmHg 92%
    06:00 +3°C° 0 mm 2 m/s 748 mmHg 93%
    07:00 +3°C° 0 mm 2 m/s 748 mmHg 93%
    08:00 +3°C° 0 mm 2 m/s 749 mmHg 94%
    09:00 +3°C° 0 mm 2 m/s 749 mmHg 94%
    10:00 +3°C° 0 mm 3 m/s 749 mmHg 89%
    11:00 +4°C° 0 mm 3 m/s 749 mmHg 84%
    12:00 +5°C° 0 mm 4 m/s 749 mmHg 80%
    13:00 +5°C° 0 mm 3 m/s 750 mmHg 82%
    14:00 +5°C° 0 mm 3 m/s 750 mmHg 85%
    15:00 +4°C° 0 mm 3 m/s 750 mmHg 87%
    16:00 +4°C° 0 mm 3 m/s 751 mmHg 88%
    17:00 +3°C° 0 mm 3 m/s 751 mmHg 89%
    18:00 +2°C° 0 mm 3 m/s 752 mmHg 90%
    19:00 +2°C° 0 mm 3 m/s 753 mmHg 90%
    20:00 +1°C° 0 mm 3 m/s 753 mmHg 90%
    21:00 +1°C° 0 mm 3 m/s 754 mmHg 90%
    22:00 +2°C° 0 mm 2 m/s 755 mmHg 89%
    23:00 +2°C° 0 mm 2 m/s 755 mmHg 89%

    18 Décembre, Mercredi

    Heure Température Précipitation Vent Pression Humidité
    00:00 +2°C° 0 mm 2 m/s 756 mmHg 89%
    01:00 +2°C° 0 mm 2 m/s 756 mmHg 89%
    02:00 +2°C° 0 mm 2 m/s 756 mmHg 89%
    03:00 +2°C° 0 mm 2 m/s 756 mmHg 89%
    04:00 +2°C° 0 mm 2 m/s 756 mmHg 89%
    05:00 +2°C° 0 mm 2 m/s 757 mmHg 90%
    06:00 +2°C° 0 mm 2 m/s 757 mmHg 90%
    07:00 +2°C° 0 mm 2 m/s 757 mmHg 89%
    08:00 +1°C° 0 mm 3 m/s 757 mmHg 89%
    09:00 +1°C° 0 mm 3 m/s 758 mmHg 89%
    10:00 +2°C° 0 mm 3 m/s 758 mmHg 87%
    11:00 +4°C° 0 mm 4 m/s 757 mmHg 85%
    12:00 +5°C° 0 mm 4 m/s 757 mmHg 84%
    13:00 +5°C° 0 mm 4 m/s 757 mmHg 84%
    14:00 +5°C° 0 mm 4 m/s 757 mmHg 84%
    15:00 +4°C° 0 mm 4 m/s 756 mmHg 84%
    16:00 +4°C° 0 mm 4 m/s 756 mmHg 87%
    17:00 +4°C° 0 mm 4 m/s 756 mmHg 90%
    18:00 +3°C° 0 mm 4 m/s 756 mmHg 93%
    19:00 +2°C° 0 mm 5 m/s 756 mmHg 92%
    20:00 +2°C° 0 mm 5 m/s 756 mmHg 92%
    21:00 +2°C° 0 mm 5 m/s 756 mmHg 92%
    22:00 +2°C° 0 mm 5 m/s 756 mmHg 93%
    23:00 +2°C° 0 mm 5 m/s 755 mmHg 94%
    Voir plus